This is the latest recevied weather packets stored in our database for station/object F6DEV-13. If no packets are shown the sender has not sent any weather packets the latest 10 day(s).
| Time | Temp. | Humidity | Pressure | Rain* | Wind** | Luminosity | Snow |
|---|---|---|---|---|---|---|---|
| 1778062170 | 15.56° C | 48% | 1010 hPa | 0 mm | - | - | - |
| 1778061820 | 16.11° C | 48% | 1010 hPa | 0 mm | - | - | - |
| 1778061487 | 16.11° C | 51% | 1010 hPa | 0 mm | - | - | - |
| 1778061160 | 15.56° C | 51% | 1010 hPa | 0 mm | - | - | - |
| 1778060829 | 15.56° C | 48% | 1010 hPa | 0 mm | - | - | - |
| 1778060563 | 15.56° C | 49% | 1010 hPa | 0 mm | - | - | - |
| 1778060531 | 15.56° C | 49% | 1010 hPa | 0 mm | - | - | - |
| 1778060193 | 15.56° C | 50% | 1010 hPa | 0 mm | - | - | - |
| 1778059866 | 15.56° C | 51% | 1010 hPa | 0 mm | - | - | - |
| 1778059534 | 15° C | 49% | 1010 hPa | 0 mm | - | - | - |
| 1778059207 | 15.56° C | 49% | 1010 hPa | 0 mm | - | - | - |
| 1778058904 | 15.56° C | 58% | 1010 hPa | 0 mm | - | - | - |
| 1778058610 | 14.44° C | 58% | 1010 hPa | 0 mm | - | - | - |
| 1778058303 | 14.44° C | 60% | 1010 hPa | 0 mm | - | - | - |
| 1778057971 | 13.89° C | 57% | 1010 hPa | 0 mm | - | - | - |
| 1778057651 | 13.33° C | 54% | 1010 hPa | 0 mm | - | - | - |
| 1778057346 | 13.33° C | 54% | 1010 hPa | 0 mm | - | - | - |
| 1778057045 | 13.89° C | 54% | 1010 hPa | 0 mm | - | - | - |
| 1778056712 | 13.33° C | 56% | 1010 hPa | 0 mm | - | - | - |
| 1778056421 | 13.33° C | 57% | 1010 hPa | 0 mm | - | - | - |
| 1778056112 | 13.33° C | 56% | 1010 hPa | 0 mm | - | - | - |
| 1778055785 | 13.33° C | 60% | 1010 hPa | 0 mm | - | - | - |
| 1778055488 | 13.33° C | 67% | 1010 hPa | 0 mm | - | - | - |
| 1778054861 | 12.22° C | 67% | 1010 hPa | 0 mm | - | - | - |
| 1778054556 | 12.22° C | 68% | 1010 hPa | 0 mm | - | - | - |
* Rain latest hour (hover to see other rain measurements)
** Current wind speed in m/s (hover to see current wind gust speed)